Location: Recife
(8.0585°S, 34.8848°W)
Time: 09:08:57
(UTC-03:00)

Vanguard 3 - Pass Details

Date: 15 April 2026
Orbit: 507 x 3204 km, 33.4° (Epoch: 11 May)

Event Time Altitude Azimuth Distance (km) Brightness Sun altitude
Rises 17:22:28 0° 236° (SW) 6,688 12.6 -2.1°
Reaches altitude 10° 17:27:28 10° 236° (SW) 5,348 12.1 -3.3°
Maximum altitude 17:42:06 88° 324° (NW) 1,717 8.8 -6.9°
Drops below altitude 10° 17:50:03 10° 54° (NE) 3,079 9.7 -8.9°
Sets 17:52:12 0° 54° (NE) 3,783 10.2 -9.4°
